This demonstration page uses our WeatherBlox Daily Observations layout. Learn more.

Left ArrowRight Arrow

Hourly Observations for February 5, 2018

Temp ( °F °C ) Dew Point ( °F °C ) Humidity (%) Winds ( mph kmh ) Pressure ( in mb ) Visibility ( mi km ) Precip ( " mm )
12:53 am 00:53 Clear 1 -17.2 -6 -21.1 72 72 S 7 11 30.25 1024 10 16 0.00 0.00
1:53 am 01:53 Clear 2 -16.7 -4 -20 76 76 S 10 17 30.20 1023 10 16 0.00 0.00
2:53 am 02:53 Clear 2 -16.7 -4 -20 76 76 S 9 15 30.18 1022 10 16 0.00 0.00
3:53 am 03:53 Clear 4 -15.6 -2 -18.9 76 76 S 13 20 30.10 1019 10 16 0.00 0.00
4:53 am 04:53 Clear 6 -14.4 0 -17.8 76 76 S 14 22 30.05 1018 10 16 0.00 0.00
5:53 am 05:53 Mostly Cloudy 8 -13.3 2 -16.7 76 76 S 14 22 30.04 1017 10 16 0.00 0.00
6:53 am 06:53 Cloudy 9 -12.8 3 -16.1 77 77 S 12 19 30.06 1018 10 16 0.00 0.00
7:53 am 07:53 Cloudy 11 -11.7 4 -15.6 73 73 S 14 22 30.03 1017 10 16 0.00 0.00
8:53 am 08:53 Cloudy 12 -11.1 5 -15 73 73 S 20 31 29.96 1015 7 11 0.00 0.03
9:53 am 09:53 Cloudy 12 -11.1 6 -14.4 77 77 S 13 20 29.97 1015 10 16 0.00 0.00
10:53 am 10:53 Cloudy 14 -10 7 -13.9 73 73 SSW 13 20 30.03 1017 9 14 0.00 0.03
11:07 am 11:07 Cloudy 15 -9.4 8 -13.3 74 74 SSW 10 17 30.09 1019 10 16 0.00 0.00
11:53 am 11:53 Cloudy 16 -8.9 9 -12.8 74 74 WSW 8 13 30.06 1018 10 16 0.00 0.00
12:53 pm 12:53 Cloudy with Light Snow 19 -7.2 12 -11.1 74 74 WNW 10 17 30.06 1018 7 11 0.00 0.03
1:53 pm 13:53 Windy with Snow Likely 21 -6.1 14 -10 74 74 N 25 41 30.09 1019 6 10 0.00 0.03
2:53 pm 14:53 Cloudy 21 -6.1 14 -10 74 74 N 18 30 30.14 1021 10 16 0.00 0.03
3:53 pm 15:53 Cloudy 22 -5.6 14 -10 71 71 N 18 30 30.17 1022 10 16 0.00 0.00
4:29 pm 16:29 Partly Cloudy 21 -6.1 11 -11.7 65 65 N 22 35 30.24 1024 10 16 0.00 0.00
4:53 pm 16:53 Sunny 20 -6.7 10 -12.2 65 65 N 21 33 30.22 1024 10 16 0.00 0.00
5:53 pm 17:53 Sunny 17 -8.3 8 -13.3 68 68 N 21 33 30.26 1025 10 16 0.00 0.00
6:53 pm 18:53 Clear 15 -9.4 6 -14.4 67 67 N 14 22 30.32 1027 10 16 0.00 0.00
7:53 pm 19:53 Clear 12 -11.1 4 -15.6 70 70 N 10 17 30.35 1028 10 16 0.00 0.00
8:53 pm 20:53 Clear 10 -12.2 2 -16.7 69 69 N 14 22 30.37 1029 10 16 0.00 0.00
9:53 pm 21:53 Clear 8 -13.3 0 -17.8 69 69 N 10 17 30.40 1029 10 16 0.00 0.00
10:53 pm 22:53 Clear 8 -13.3 0 -17.8 69 69 N 13 20 30.40 1030 10 16 0.00 0.00
11:53 pm 23:53 Clear 6 -14.4 -1 -18.3 73 73 N 13 20 30.44 1031 10 16 0.00 0.00

Powered by AerisWeather